^^
Datos históricos de la estación: Murcia-Puente Tocinos
Diario Informe para Marzo 31, 2019 Unidades:  Métrico    Inglés   Ambas
Diario Semanal Mensual Anual Configurable
  Máximo: Mínimo: Media:
Temperatura: 13.4 °C 10.6 °C 12.2 °C
Punto de rocio: 12.4 °C 8.4 °C 10.6 °C
Humedad: 96% 73% 90%
Velocidad viento: 8.4km/h 0.0km/h 5.3km/h
Racha viento: 14.8km/h - -
Viento- - SW
Presión: 1017.3 hPa 1009.5 hPa -
Precipitación: 21.3 mm    
Historical Graphs
 
 
Tabla de datos para Marzo 31, 2019
Hora Temperatura Punto de rocio Presión Viento Velocidad viento Racha viento Humedad Intensidad lluvia(por hora) Nubes
00:00 13.1 °C 9.2 °C 1017.2 hPa NNW 3.2 km/h 8.0 km/h 77% 0.0 mm CLR
00:05 13.1 °C 9.2 °C 1017.3 hPa NW 3.9 km/h 4.7 km/h 77% 0.0 mm CLR
00:10 13.1 °C 9.2 °C 1017.3 hPa NW 2.9 km/h 3.7 km/h 77% 0.0 mm CLR
00:15 13.1 °C 9.2 °C 1017.3 hPa NW 2.9 km/h 5.6 km/h 77% 0.0 mm CLR
00:20 13.1 °C 9.2 °C 1017.2 hPa NW 3.2 km/h 7.4 km/h 77% 0.0 mm CLR
00:25 13.1 °C 9.2 °C 1017.2 hPa NW 3.2 km/h 7.4 km/h 77% 0.0 mm CLR
00:30 13.1 °C 9.2 °C 1017.2 hPa NW 3.9 km/h 5.6 km/h 77% 0.0 mm CLR
00:35 13.1 °C 9.2 °C 1017.2 hPa NW 3.9 km/h 7.4 km/h 77% 0.0 mm CLR
00:40 13.1 °C 9.2 °C 1017.2 hPa NW 3.9 km/h 5.6 km/h 77% 0.0 mm CLR
00:45 13.1 °C 9.2 °C 1017.2 hPa NW 3.9 km/h 5.6 km/h 77% 0.0 mm CLR
00:50 13.1 °C 8.9 °C 1017.0 hPa NW 3.2 km/h 7.4 km/h 76% 0.0 mm CLR
00:55 13.2 °C 9.1 °C 1017.0 hPa NW 3.2 km/h   76% 0.0 mm CLR
01:00 13.2 °C 9.1 °C 1017.0 hPa NW 1.6 km/h   76% 0.0 mm CLR
01:04 13.2 °C 9.1 °C 1016.9 hPa NW 2.3 km/h   76% 0.0 mm CLR
01:09 13.2 °C 8.9 °C 1016.9 hPa Calm     75% 0.0 mm CLR
01:14 13.2 °C 8.7 °C 1016.9 hPa Calm   7.4 km/h 74% 0.0 mm CLR
01:19 13.2 °C 8.7 °C 1016.8 hPa NE 2.9 km/h 5.6 km/h 74% 0.0 mm CLR
01:24 13.2 °C 8.7 °C 1016.8 hPa NE 2.9 km/h 3.9 km/h 74% 0.0 mm CLR
01:29 13.2 °C 8.7 °C 1016.8 hPa NE 2.9 km/h 5.6 km/h 74% 0.0 mm CLR
01:34 13.2 °C 8.4 °C 1016.4 hPa NE 2.9 km/h 7.4 km/h 73% 0.0 mm CLR
01:39 13.2 °C 8.7 °C 1016.4 hPa NW 3.2 km/h 5.6 km/h 74% 0.0 mm CLR
01:44 13.2 °C 8.7 °C 1016.4 hPa NNW 3.2 km/h 7.4 km/h 74% 0.0 mm CLR
01:49 13.2 °C 8.7 °C 1016.2 hPa NW 3.9 km/h 6.9 km/h 74% 0.0 mm CLR
01:54 13.2 °C 8.7 °C 1016.2 hPa NW 3.9 km/h 7.4 km/h 74% 0.0 mm CLR
01:59 13.2 °C 8.7 °C 1016.2 hPa NW 4.7 km/h 7.4 km/h 74% 0.0 mm CLR
03:04 13.2 °C 8.7 °C 1016.0 hPa NW 4.7 km/h 7.4 km/h 74% 0.0 mm CLR
03:09 13.2 °C 8.7 °C 1016.0 hPa NW 3.9 km/h 7.4 km/h 74% 0.0 mm CLR
03:14 13.1 °C 8.6 °C 1016.0 hPa NW 3.9 km/h 5.6 km/h 74% 0.0 mm CLR
03:19 13.1 °C 8.6 °C 1015.6 hPa NNW 4.7 km/h 7.6 km/h 74% 0.0 mm CLR
03:24 13.1 °C 8.6 °C 1015.6 hPa NNW 4.7 km/h 5.8 km/h 74% 0.0 mm CLR
03:29 13.2 °C 8.7 °C 1015.6 hPa NNW 3.2 km/h 7.4 km/h 74% 0.0 mm CLR
03:34 13.1 °C 8.6 °C 1015.4 hPa NNW 3.2 km/h 7.4 km/h 74% 0.0 mm CLR
03:39 13.1 °C 8.6 °C 1015.4 hPa NNW 4.7 km/h 9.3 km/h 74% 0.0 mm CLR
03:44 13.1 °C 8.6 °C 1015.4 hPa NNW 4.7 km/h 7.4 km/h 74% 0.0 mm CLR
03:49 13.1 °C 8.6 °C 1015.1 hPa NNW 5.0 km/h 5.6 km/h 74% 0.0 mm CLR
03:54 13.1 °C 8.6 °C 1015.1 hPa NW 5.0 km/h 5.8 km/h 74% 0.0 mm CLR
03:59 13.1 °C 8.6 °C 1015.1 hPa NW 3.9 km/h 7.4 km/h 74% 0.0 mm CLR
04:04 13.0 °C 8.7 °C 1014.9 hPa NW 3.9 km/h 10.0 km/h 75% 0.0 mm CLR
04:09 12.9 °C 8.8 °C 1014.9 hPa NW 6.4 km/h 5.8 km/h 76% 0.3 mm RA
04:14 12.9 °C 9.2 °C 1014.9 hPa NW 6.4 km/h 5.6 km/h 78% 0.3 mm RA
04:19 12.8 °C 9.1 °C 1014.5 hPa NW 3.9 km/h 9.3 km/h 78% 0.3 mm
04:24 12.7 °C 9.2 °C 1014.5 hPa NW 3.9 km/h 7.4 km/h 79% 0.3 mm
04:29 12.6 °C 9.4 °C 1014.5 hPa NW 5.0 km/h 7.6 km/h 81% 0.3 mm CLR
04:34 12.4 °C 9.2 °C 1014.2 hPa NW 5.0 km/h 7.4 km/h 81% 0.3 mm CLR
04:39 12.4 °C 9.4 °C 1014.2 hPa WNW 5.0 km/h 11.1 km/h 82% 0.3 mm CLR
04:44 12.3 °C 9.3 °C 1014.2 hPa NW 5.0 km/h 11.1 km/h 82% 0.5 mm RA
04:49 12.2 °C 9.4 °C 1013.9 hPa NW 6.4 km/h 9.3 km/h 83% 0.5 mm RA
04:54 12.2 °C 9.6 °C 1013.9 hPa NW 6.4 km/h 6.4 km/h 84% 0.5 mm
04:59 12.2 °C 9.6 °C 1013.9 hPa NW 4.7 km/h 7.4 km/h 84% 0.5 mm CLR
05:04 12.2 °C 9.8 °C 1013.9 hPa NW 4.7 km/h 5.6 km/h 85% 0.5 mm CLR
05:09 12.2 °C 9.8 °C 1013.9 hPa West 3.9 km/h 7.4 km/h 85% 0.5 mm CLR
05:14 12.2 °C 9.8 °C 1013.9 hPa WNW 3.9 km/h 5.0 km/h 85% 0.3 mm CLR
05:19 12.2 °C 9.9 °C 1013.5 hPa West 3.2 km/h 5.6 km/h 86% 0.3 mm CLR
05:24 12.3 °C 10.0 °C 1013.5 hPa WSW 3.2 km/h 6.4 km/h 86% 0.3 mm CLR
05:29 12.3 °C 10.0 °C 1013.5 hPa SW 3.2 km/h 7.4 km/h 86% 0.3 mm CLR
05:34 12.3 °C 10.0 °C 1013.3 hPa WSW 3.2 km/h 7.4 km/h 86% 0.3 mm CLR
05:39 12.3 °C 10.0 °C 1013.3 hPa WSW 5.0 km/h 9.3 km/h 86% 0.3 mm CLR
05:44 12.3 °C 10.0 °C 1013.3 hPa WSW 5.0 km/h 9.3 km/h 86% 0.3 mm CLR
05:49 12.3 °C 10.0 °C 1013.2 hPa SW 6.4 km/h 9.3 km/h 86% 0.0 mm CLR
05:54 12.3 °C 10.0 °C 1013.2 hPa West 6.4 km/h 9.3 km/h 86% 0.0 mm CLR
05:59 12.3 °C 10.0 °C 1013.2 hPa West 5.0 km/h 7.4 km/h 86% 0.5 mm RA
06:04 12.3 °C 10.2 °C 1013.0 hPa WSW 5.0 km/h 7.4 km/h 87% 0.5 mm RA
06:09 12.2 °C 9.9 °C 1013.0 hPa SW 3.9 km/h 7.4 km/h 86% 0.8 mm RA
06:14 12.2 °C 10.1 °C 1013.0 hPa SW 3.9 km/h 4.7 km/h 87% 0.8 mm RA
06:19 12.1 °C 9.8 °C 1012.9 hPa SW 3.2 km/h 9.3 km/h 86% 0.8 mm
06:24 11.9 °C 9.8 °C 1012.9 hPa WSW 3.2 km/h 9.3 km/h 87% 0.8 mm
06:29 11.9 °C 9.8 °C 1012.9 hPa WSW 5.8 km/h 7.4 km/h 87% 1.0 mm RA
06:34 11.8 °C 9.7 °C 1012.8 hPa WSW 5.8 km/h 11.1 km/h 87% 1.0 mm RA
06:39 11.8 °C 9.9 °C 1012.8 hPa WSW 5.8 km/h 7.4 km/h 88% 1.0 mm
06:44 11.8 °C 9.9 °C 1012.8 hPa WSW 5.8 km/h 11.1 km/h 88% 1.0 mm
06:49 11.8 °C 9.9 °C 1012.8 hPa SW 5.8 km/h 9.3 km/h 88% 1.3 mm RA
06:54 11.8 °C 9.9 °C 1012.8 hPa SW 5.8 km/h 13.0 km/h 88% 1.3 mm RA
06:59 11.7 °C 9.9 °C 1012.8 hPa WSW 5.8 km/h 9.3 km/h 89% 1.3 mm
07:04 11.7 °C 9.9 °C 1012.7 hPa SW 5.8 km/h 7.4 km/h 89% 0.8 mm
07:09 11.7 °C 9.9 °C 1012.7 hPa SSW 5.8 km/h 11.1 km/h 89% 0.8 mm CLR
07:14 11.6 °C 10.0 °C 1012.7 hPa SW 5.8 km/h 7.4 km/h 90% 0.5 mm CLR
07:19 11.6 °C 10.0 °C 1012.7 hPa WSW 6.4 km/h 10.3 km/h 90% 0.5 mm CLR
07:24 11.6 °C 10.0 °C 1012.7 hPa WSW 6.4 km/h 9.3 km/h 90% 0.5 mm CLR
07:29 11.6 °C 9.8 °C 1012.7 hPa SW 6.9 km/h 11.1 km/h 89% 0.5 mm CLR
07:34 11.6 °C 10.0 °C 1012.9 hPa SSW 6.9 km/h 10.0 km/h 90% 0.3 mm CLR
07:39 11.6 °C 10.0 °C 1012.9 hPa SSW 6.9 km/h 9.3 km/h 90% 0.3 mm CLR
07:44 11.5 °C 9.9 °C 1012.9 hPa SSW 6.9 km/h 13.0 km/h 90% 0.3 mm CLR
07:49 11.5 °C 9.9 °C 1012.9 hPa South 6.4 km/h 11.1 km/h 90% 0.5 mm RA
07:54 11.4 °C 9.8 °C 1012.9 hPa SW 6.4 km/h 13.0 km/h 90% 0.3 mm RA
07:59 11.4 °C 9.8 °C 1012.9 hPa WSW 6.9 km/h 9.3 km/h 90% 0.3 mm
08:04 11.4 °C 10.0 °C 1012.9 hPa WSW 6.9 km/h 9.3 km/h 91% 0.3 mm
08:09 11.4 °C 10.0 °C 1012.9 hPa West 6.4 km/h 11.1 km/h 91% 0.3 mm CLR
08:14 11.4 °C 10.0 °C 1012.9 hPa SW 6.4 km/h 7.4 km/h 91% 0.3 mm CLR
08:19 11.3 °C 9.9 °C 1012.9 hPa WSW 6.4 km/h 11.1 km/h 91% 0.3 mm CLR
08:24 11.3 °C 9.9 °C 1012.9 hPa WSW 6.4 km/h 9.3 km/h 91% 0.8 mm RA
08:29 11.3 °C 10.1 °C 1012.9 hPa West 6.9 km/h 9.3 km/h 92% 0.8 mm RA
08:34 11.3 °C 9.9 °C 1012.8 hPa West 6.9 km/h 8.7 km/h 91% 0.8 mm
08:39 11.2 °C 9.8 °C 1012.8 hPa West 5.0 km/h 9.3 km/h 91% 0.8 mm CLR
08:44 11.1 °C 9.8 °C 1012.8 hPa West 5.0 km/h 7.6 km/h 92% 0.8 mm CLR
08:49 11.1 °C 9.8 °C 1012.9 hPa West 5.0 km/h 7.6 km/h 92% 0.8 mm CLR
08:54 11.1 °C 9.8 °C 1012.9 hPa WSW 5.0 km/h 13.0 km/h 92% 0.5 mm CLR
08:59 11.1 °C 9.8 °C 1012.9 hPa West 5.8 km/h 14.8 km/h 92% 0.5 mm CLR
09:04 10.9 °C 9.7 °C 1012.9 hPa WNW 5.8 km/h 9.3 km/h 92% 0.5 mm CLR
09:09 10.9 °C 9.7 °C 1012.9 hPa WSW 8.4 km/h 11.1 km/h 92% 0.5 mm CLR
09:14 10.9 °C 9.7 °C 1012.9 hPa WSW 8.4 km/h 7.4 km/h 92% 0.5 mm CLR
09:19 10.9 °C 9.7 °C 1012.9 hPa WSW 6.9 km/h 13.0 km/h 92% 0.5 mm CLR
09:24 10.8 °C 9.6 °C 1012.9 hPa WNW 6.9 km/h 11.1 km/h 92% 0.3 mm RA
09:29 10.8 °C 9.7 °C 1012.9 hPa West 7.6 km/h 8.4 km/h 93% 0.5 mm RA
09:34 10.8 °C 9.6 °C 1013.0 hPa WSW 7.6 km/h 14.8 km/h 92% 0.8 mm RA
09:39 10.7 °C 9.6 °C 1013.0 hPa West 8.4 km/h 14.8 km/h 93% 0.8 mm RA
09:44 10.7 °C 9.6 °C 1013.0 hPa West 8.4 km/h 13.0 km/h 93% 0.8 mm RA
09:49 10.7 °C 9.6 °C 1013.0 hPa WSW 8.4 km/h 10.3 km/h 93% 1.0 mm RA
09:54 10.7 °C 9.6 °C 1013.0 hPa SW 8.4 km/h 11.1 km/h 93% 1.3 mm RA
09:59 10.7 °C 9.6 °C 1013.0 hPa WSW 6.9 km/h 11.1 km/h 93% 1.3 mm RA
10:04 10.7 °C 9.6 °C 1013.0 hPa WSW 6.9 km/h 13.0 km/h 93% 1.5 mm RA
10:09 10.6 °C 9.5 °C 1013.0 hPa WSW 8.4 km/h 13.0 km/h 93% 1.5 mm RA
10:14 10.6 °C 9.5 °C 1013.0 hPa WSW 8.4 km/h 13.0 km/h 93% 1.5 mm
10:19 10.6 °C 9.5 °C 1013.1 hPa WSW 6.4 km/h 11.1 km/h 93% 1.5 mm
10:24 10.6 °C 9.5 °C 1013.1 hPa WSW 6.4 km/h 9.3 km/h 93% 1.5 mm CLR
10:29 10.7 °C 9.8 °C 1013.1 hPa WSW 6.9 km/h 9.3 km/h 94% 1.5 mm RA
10:34 10.7 °C 9.8 °C 1013.1 hPa SW 6.9 km/h 9.3 km/h 94% 1.5 mm RA
10:39 10.7 °C 9.8 °C 1013.1 hPa WSW 6.4 km/h 7.4 km/h 94% 1.3 mm RA
10:44 10.7 °C 9.8 °C 1013.1 hPa SW 6.4 km/h 11.1 km/h 94% 1.3 mm RA
10:49 10.7 °C 9.8 °C 1013.1 hPa SW 6.4 km/h 9.3 km/h 94% 1.5 mm RA
10:54 10.7 °C 9.8 °C 1013.1 hPa WSW 6.4 km/h 13.0 km/h 94% 1.5 mm RA
10:59 10.7 °C 9.8 °C 1013.1 hPa SW 7.6 km/h 8.4 km/h 94% 1.8 mm RA
11:04 10.8 °C 9.9 °C 1013.0 hPa SW 7.6 km/h 11.1 km/h 94% 1.8 mm RA
11:09 10.7 °C 9.8 °C 1013.0 hPa SSW 5.8 km/h 3.9 km/h 94% 1.8 mm RA
11:14 10.8 °C 9.9 °C 1013.0 hPa SSW 5.8 km/h 11.1 km/h 94% 2.0 mm RA
11:19 10.9 °C 10.1 °C 1013.0 hPa SW 6.4 km/h 9.5 km/h 95% 2.3 mm RA
11:24 10.9 °C 9.9 °C 1013.0 hPa SSW 6.4 km/h 7.4 km/h 94% 2.3 mm RA
11:29 10.9 °C 10.1 °C 1013.0 hPa SSE 5.8 km/h 7.4 km/h 95% 2.5 mm RA
11:34 10.9 °C 9.9 °C 1013.2 hPa SW 5.8 km/h 11.1 km/h 94% 2.5 mm RA
11:39 10.8 °C 10.1 °C 1013.2 hPa WSW 6.9 km/h 13.0 km/h 95% 3.0 mm RA
11:44 10.8 °C 9.9 °C 1013.2 hPa SW 6.9 km/h 13.0 km/h 94% 3.3 mm RA
11:49 10.9 °C 10.1 °C 1013.0 hPa SSW 7.6 km/h 9.5 km/h 95% 3.3 mm RA
11:54 10.9 °C 10.1 °C 1013.0 hPa SSE 7.6 km/h 9.3 km/h 95% 3.3 mm RA
11:59 10.9 °C 10.1 °C 1013.0 hPa SSW 5.8 km/h 9.3 km/h 95% 3.3 mm RA
12:04 10.9 °C 10.1 °C 1012.8 hPa SSW 5.8 km/h 11.1 km/h 95% 3.0 mm RA
12:09 10.9 °C 10.1 °C 1012.8 hPa SSW 6.9 km/h 7.4 km/h 95% 3.3 mm RA
12:14 11.0 °C 10.2 °C 1012.8 hPa SSW 6.9 km/h 7.4 km/h 95% 3.3 mm RA
12:19 11.1 °C 10.3 °C 1012.7 hPa SSW 5.8 km/h 9.3 km/h 95% 3.3 mm RA
12:24 11.1 °C 10.3 °C 1012.7 hPa SSW 5.8 km/h 13.0 km/h 95% 3.0 mm RA
12:29 11.1 °C 10.3 °C 1012.7 hPa South 6.9 km/h 7.4 km/h 95% 3.3 mm RA
12:34 11.1 °C 10.3 °C 1012.7 hPa South 6.9 km/h 7.4 km/h 95% 3.3 mm RA
12:39 11.1 °C 10.3 °C 1012.7 hPa SSW 4.7 km/h 9.3 km/h 95% 3.6 mm RA
12:44 11.1 °C 10.3 °C 1012.7 hPa SSW 4.7 km/h 11.1 km/h 95% 3.3 mm RA
12:49 11.1 °C 10.3 °C 1012.5 hPa South 6.4 km/h 7.4 km/h 95% 3.0 mm RA
12:54 11.1 °C 10.3 °C 1012.5 hPa SSW 6.4 km/h 9.3 km/h 95% 3.3 mm RA
12:59 11.1 °C 10.3 °C 1012.5 hPa SSW 6.4 km/h 11.1 km/h 95% 3.3 mm RA
13:04 11.2 °C 10.4 °C 1012.4 hPa SSW 6.4 km/h 11.1 km/h 95% 3.3 mm RA
13:09 11.2 °C 10.6 °C 1012.4 hPa SSW 7.6 km/h 9.3 km/h 96% 3.3 mm RA
13:14 11.2 °C 10.6 °C 1012.4 hPa SW 7.6 km/h 7.4 km/h 96% 3.3 mm RA
13:19 11.2 °C 10.4 °C 1012.2 hPa SW 5.8 km/h 7.4 km/h 95% 3.3 mm RA
13:24 11.2 °C 10.4 °C 1012.2 hPa SW 5.8 km/h 9.3 km/h 95% 3.6 mm RA
13:29 11.2 °C 10.4 °C 1012.2 hPa SSW 5.8 km/h 7.4 km/h 95% 3.3 mm RA
13:34 11.2 °C 10.4 °C 1012.1 hPa SSW 5.8 km/h 7.4 km/h 95% 3.6 mm RA
13:39 11.3 °C 10.7 °C 1012.1 hPa South 5.0 km/h 5.8 km/h 96% 3.6 mm RA
13:44 11.3 °C 10.6 °C 1012.1 hPa WSW 5.0 km/h 7.4 km/h 95% 3.0 mm RA
13:49 11.3 °C 10.6 °C 1011.9 hPa SW 4.7 km/h 9.3 km/h 95% 3.0 mm RA
13:54 11.4 °C 10.8 °C 1011.9 hPa WSW 4.7 km/h 7.4 km/h 96% 3.0 mm RA
13:59 11.3 °C 10.6 °C 1011.9 hPa WSW 3.9 km/h 7.4 km/h 95% 2.8 mm RA
14:04 11.4 °C 10.6 °C 1011.6 hPa WSW 3.9 km/h 9.3 km/h 95% 2.8 mm RA
14:09 11.4 °C 10.6 °C 1011.6 hPa SW 5.0 km/h 9.3 km/h 95% 2.5 mm RA
14:14 11.4 °C 10.6 °C 1011.6 hPa WSW 5.0 km/h 10.0 km/h 95% 2.5 mm RA
14:19 11.5 °C 10.7 °C 1011.5 hPa SW 5.8 km/h 9.3 km/h 95% 2.5 mm RA
14:24 11.6 °C 10.8 °C 1011.5 hPa SW 5.8 km/h 7.4 km/h 95% 2.3 mm RA
14:29 11.6 °C 10.8 °C 1011.5 hPa SW 5.0 km/h 3.7 km/h 95% 2.0 mm RA
14:34 11.6 °C 10.8 °C 1011.3 hPa SW 5.0 km/h 7.4 km/h 95% 2.0 mm RA
14:39 11.6 °C 10.8 °C 1011.3 hPa SW 4.7 km/h 7.4 km/h 95% 2.0 mm RA
14:44 11.6 °C 10.8 °C 1011.3 hPa South 4.7 km/h 9.3 km/h 95% 2.0 mm RA
14:49 11.7 °C 10.9 °C 1011.0 hPa SSE 5.8 km/h 9.3 km/h 95% 2.3 mm RA
14:54 11.7 °C 10.9 °C 1011.0 hPa South 5.8 km/h 8.7 km/h 95% 2.3 mm RA
14:59 11.7 °C 10.9 °C 1011.0 hPa SSW 5.8 km/h 11.1 km/h 95% 2.3 mm RA
15:04 11.7 °C 10.9 °C 1010.8 hPa SSW 5.8 km/h 9.3 km/h 95% 2.5 mm RA
15:09 11.7 °C 10.9 °C 1010.8 hPa South 8.4 km/h 11.1 km/h 95% 2.3 mm RA
15:14 11.7 °C 10.9 °C 1010.8 hPa SSW 8.4 km/h 13.0 km/h 95% 2.5 mm RA
15:19 11.7 °C 10.9 °C 1010.6 hPa SW 7.6 km/h 7.4 km/h 95% 2.5 mm RA
15:24 11.7 °C 11.1 °C 1010.6 hPa South 7.6 km/h 7.4 km/h 96% 2.8 mm RA
15:29 11.8 °C 11.0 °C 1010.6 hPa South 5.0 km/h 7.4 km/h 95% 2.8 mm RA
15:34 11.8 °C 11.2 °C 1010.5 hPa South 5.0 km/h 7.4 km/h 96% 2.5 mm RA
15:39 11.9 °C 11.3 °C 1010.5 hPa SSE 4.7 km/h 9.3 km/h 96% 2.8 mm RA
15:44 11.9 °C 11.3 °C 1010.5 hPa SSW 4.7 km/h 7.4 km/h 96% 2.8 mm RA
15:49 11.9 °C 11.3 °C 1010.2 hPa SSW 6.4 km/h 8.7 km/h 96% 2.5 mm RA
15:54 11.9 °C 11.3 °C 1010.2 hPa SSW 6.4 km/h 9.5 km/h 96% 2.8 mm RA
15:59 12.0 °C 11.4 °C 1010.2 hPa SSW 6.4 km/h 11.1 km/h 96% 2.5 mm RA
16:04 12.1 °C 11.5 °C 1010.0 hPa SSW 6.4 km/h 7.4 km/h 96% 2.3 mm RA
16:09 12.1 °C 11.5 °C 1010.0 hPa SSW 5.8 km/h 7.4 km/h 96% 2.3 mm RA
16:14 12.2 °C 11.6 °C 1010.0 hPa SSW 5.8 km/h 7.4 km/h 96% 2.5 mm RA
16:19 12.2 °C 11.6 °C 1010.0 hPa SSW 4.7 km/h 7.4 km/h 96% 2.3 mm RA
16:24 12.2 °C 11.4 °C 1010.0 hPa NW 4.7 km/h 13.0 km/h 95% 2.0 mm
16:29 12.2 °C 11.6 °C 1010.0 hPa West 4.7 km/h 3.7 km/h 96% 2.0 mm RA
16:34 12.3 °C 11.7 °C 1009.9 hPa West 4.7 km/h 5.6 km/h 96% 1.8 mm RA
16:39 12.3 °C 11.5 °C 1009.9 hPa WSW 3.2 km/h 5.8 km/h 95% 2.0 mm RA
16:44 12.3 °C 11.5 °C 1009.9 hPa South 3.2 km/h 9.3 km/h 95% 1.8 mm RA
16:49 12.4 °C 11.6 °C 1009.8 hPa South 5.8 km/h 6.4 km/h 95% 1.8 mm RA
16:54 12.4 °C 11.6 °C 1009.8 hPa South 5.8 km/h 7.4 km/h 95% 1.8 mm RA
16:59 12.4 °C 11.6 °C 1009.8 hPa SSE 4.7 km/h 9.3 km/h 95% 1.5 mm
17:05 12.4 °C 11.7 °C 1009.8 hPa SSE 3.2 km/h 11.3 km/h 95% 0.0 mm
17:09 12.5 °C 11.7 °C 1009.8 hPa SSE 6.4 km/h 9.3 km/h 95% 1.3 mm CLR
17:14 12.6 °C 12.0 °C 1009.8 hPa SSE 6.4 km/h 10.0 km/h 96% 1.0 mm CLR
17:19 12.6 °C 11.8 °C 1009.7 hPa South 6.4 km/h 7.4 km/h 95% 0.8 mm CLR
17:24 12.6 °C 11.8 °C 1009.7 hPa SSW 6.4 km/h 9.3 km/h 95% 0.8 mm CLR
17:29 12.6 °C 12.0 °C 1009.7 hPa SW 5.8 km/h 9.3 km/h 96% 0.8 mm CLR
17:34 12.7 °C 12.1 °C 1009.6 hPa SW 5.8 km/h 9.5 km/h 96% 0.5 mm CLR
17:39 12.7 °C 12.1 °C 1009.6 hPa SSW 5.8 km/h 6.9 km/h 96% 0.5 mm CLR
17:45 12.7 °C 11.9 °C 1009.6 hPa SW 5.8 km/h 7.4 km/h 95% 0.3 mm CLR
17:49 12.7 °C 11.9 °C 1009.6 hPa SW 5.0 km/h 9.3 km/h 95% 0.8 mm RA
17:54 12.7 °C 11.9 °C 1009.6 hPa WSW 5.0 km/h 7.6 km/h 95% 0.5 mm RA
17:59 12.7 °C 11.9 °C 1009.6 hPa SW 5.8 km/h 7.4 km/h 95% 0.5 mm
18:04 12.7 °C 11.9 °C 1009.8 hPa SSW 5.8 km/h 7.4 km/h 95% 0.5 mm
18:09 12.7 °C 11.9 °C 1009.8 hPa South 5.0 km/h 7.4 km/h 95% 0.5 mm CLR
18:14 12.7 °C 11.9 °C 1009.8 hPa South 5.0 km/h 9.3 km/h 95% 0.5 mm CLR
18:19 12.8 °C 12.0 °C 1009.7 hPa SSW 6.4 km/h 9.3 km/h 95% 0.5 mm CLR
18:24 12.8 °C 12.0 °C 1009.7 hPa SSW 6.4 km/h 9.3 km/h 95% 0.8 mm RA
18:29 12.8 °C 12.0 °C 1009.7 hPa SSE 5.8 km/h 7.4 km/h 95% 0.8 mm RA
18:34 12.8 °C 12.0 °C 1009.6 hPa South 5.8 km/h 6.4 km/h 95% 0.8 mm
18:39 12.8 °C 12.0 °C 1009.6 hPa SSW 4.7 km/h 5.6 km/h 95% 0.8 mm
18:44 12.8 °C 12.0 °C 1009.6 hPa South 4.7 km/h 7.4 km/h 95% 0.8 mm CLR
18:49 12.8 °C 12.0 °C 1009.5 hPa South 3.9 km/h 7.4 km/h 95% 1.0 mm RA
18:54 12.8 °C 12.0 °C 1009.5 hPa SSW 3.9 km/h 7.4 km/h 95% 0.5 mm RA
18:59 12.8 °C 12.0 °C 1009.5 hPa SSE 5.0 km/h 7.4 km/h 95% 0.5 mm RA
19:04 12.9 °C 12.1 °C 1009.6 hPa SSE 5.0 km/h 7.4 km/h 95% 0.5 mm
19:09 12.9 °C 12.1 °C 1009.6 hPa SSE 5.0 km/h 7.4 km/h 95% 0.5 mm CLR
19:14 12.9 °C 12.1 °C 1009.6 hPa SSW 5.0 km/h 7.4 km/h 95% 0.5 mm CLR
19:19 12.9 °C 12.1 °C 1009.6 hPa SSW 5.0 km/h 7.4 km/h 95% 0.5 mm CLR
19:25 12.9 °C 12.1 °C 1009.6 hPa SSW 5.0 km/h 9.3 km/h 95% 0.5 mm CLR
19:29 12.9 °C 12.1 °C 1009.6 hPa WSW 5.0 km/h 7.4 km/h 95% 0.3 mm CLR
19:34 12.9 °C 12.1 °C 1009.5 hPa SW 5.0 km/h 5.6 km/h 95% 0.3 mm CLR
19:39 12.9 °C 12.1 °C 1009.5 hPa SW 3.9 km/h 5.6 km/h 95% 0.5 mm RA
19:44 12.9 °C 12.1 °C 1009.5 hPa SW 3.9 km/h 7.4 km/h 95% 0.5 mm RA
19:49 12.9 °C 12.1 °C 1009.6 hPa SW 5.0 km/h 5.6 km/h 95% 0.5 mm
19:54 13.0 °C 12.2 °C 1009.6 hPa SW 5.0 km/h 3.9 km/h 95% 0.5 mm
19:59 13.0 °C 12.2 °C 1009.6 hPa SW 3.2 km/h 7.4 km/h 95% 0.3 mm CLR
20:04 13.0 °C 12.2 °C 1009.6 hPa SW 3.2 km/h 7.4 km/h 95% 0.3 mm CLR
20:09 13.0 °C 12.2 °C 1009.6 hPa SW 4.7 km/h 7.4 km/h 95% 0.3 mm CLR
20:14 12.9 °C 12.1 °C 1009.6 hPa SW 4.7 km/h 7.4 km/h 95% 0.3 mm CLR
20:19 13.0 °C 12.2 °C 1009.5 hPa SW 5.0 km/h 7.4 km/h 95% 0.3 mm CLR
20:24 13.0 °C 12.2 °C 1009.5 hPa SW 5.0 km/h 3.9 km/h 95% 0.3 mm CLR
20:29 13.1 °C 12.3 °C 1009.5 hPa SW 3.9 km/h 7.4 km/h 95% 0.3 mm CLR
20:34 13.1 °C 12.3 °C 1009.7 hPa SW 3.9 km/h 7.4 km/h 95% 0.3 mm CLR
20:39 13.1 °C 12.3 °C 1009.7 hPa SSW 5.0 km/h 7.4 km/h 95% 0.3 mm CLR
20:44 13.1 °C 12.3 °C 1009.7 hPa South 5.0 km/h 5.8 km/h 95% 0.0 mm CLR
20:49 13.1 °C 12.3 °C 1009.7 hPa South 4.7 km/h 7.4 km/h 95% 0.0 mm CLR
20:54 13.1 °C 12.3 °C 1009.7 hPa SSW 4.7 km/h 7.4 km/h 95% 0.0 mm CLR
20:59 13.1 °C 12.3 °C 1009.7 hPa SSW 5.0 km/h 7.4 km/h 95% 0.0 mm CLR
21:04 13.1 °C 12.3 °C 1009.8 hPa SSW 5.0 km/h 7.4 km/h 95% 0.0 mm CLR
21:09 13.1 °C 12.3 °C 1009.8 hPa South 5.0 km/h 7.4 km/h 95% 0.0 mm CLR
21:14 13.1 °C 12.3 °C 1009.8 hPa SSE 5.0 km/h 9.3 km/h 95% 0.0 mm CLR
21:19 13.1 °C 12.3 °C 1009.9 hPa SSE 5.8 km/h 8.4 km/h 95% 0.0 mm CLR
21:24 13.1 °C 12.3 °C 1009.9 hPa South 5.8 km/h 7.4 km/h 95% 0.0 mm CLR
21:29 13.1 °C 12.3 °C 1009.9 hPa South 5.8 km/h 9.3 km/h 95% 0.0 mm CLR
21:35 13.1 °C 12.3 °C 1010.1 hPa SSE 4.8 km/h 8.0 km/h 95% 0.0 mm CLR
21:39 13.1 °C 12.3 °C 1010.1 hPa South 5.0 km/h 6.4 km/h 95% 0.0 mm CLR
21:45 13.1 °C 12.3 °C 1010.1 hPa South 5.0 km/h 7.4 km/h 95% 0.0 mm CLR
21:49 13.1 °C 12.3 °C 1010.4 hPa South 3.9 km/h 3.7 km/h 95% 0.0 mm CLR
21:55 13.1 °C 12.3 °C 1010.4 hPa South 3.2 km/h 8.0 km/h 95% 0.0 mm CLR
21:59 13.1 °C 12.3 °C 1010.4 hPa South 4.7 km/h 7.4 km/h 95% 0.0 mm CLR
22:04 13.1 °C 12.3 °C 1010.6 hPa South 4.7 km/h 7.4 km/h 95% 0.0 mm CLR
22:09 13.1 °C 12.3 °C 1010.6 hPa South 4.7 km/h 7.4 km/h 95% 0.0 mm CLR
22:14 13.1 °C 12.3 °C 1010.6 hPa South 4.7 km/h 7.4 km/h 95% 0.0 mm CLR
22:19 13.1 °C 12.3 °C 1010.7 hPa South 4.7 km/h 5.8 km/h 95% 0.0 mm CLR
22:24 13.1 °C 12.3 °C 1010.7 hPa South 4.7 km/h 5.0 km/h 95% 0.0 mm CLR
22:29 13.1 °C 12.3 °C 1010.7 hPa South 4.7 km/h 7.4 km/h 95% 0.0 mm CLR
22:34 13.1 °C 12.3 °C 1010.8 hPa South 4.7 km/h 5.6 km/h 95% 0.0 mm CLR
22:39 13.2 °C 12.4 °C 1010.8 hPa South 3.9 km/h 7.4 km/h 95% 0.0 mm CLR
22:45 13.1 °C 12.3 °C 1010.8 hPa South 3.9 km/h 7.4 km/h 95% 0.0 mm CLR
22:49 13.2 °C 12.4 °C 1010.9 hPa South 4.7 km/h 7.4 km/h 95% 0.0 mm CLR
22:54 13.2 °C 12.4 °C 1010.9 hPa South 4.7 km/h 7.4 km/h 95% 0.0 mm CLR
22:59 13.2 °C 12.4 °C 1010.9 hPa South 4.7 km/h 7.4 km/h 95% 0.0 mm CLR
23:04 13.2 °C 12.3 °C 1011.0 hPa South 4.7 km/h 7.4 km/h 94% 0.0 mm CLR
23:09 13.2 °C 12.3 °C 1011.0 hPa South 5.0 km/h 7.4 km/h 94% 0.0 mm CLR
23:14 13.3 °C 12.3 °C 1011.0 hPa SSW 5.0 km/h 9.3 km/h 94% 0.0 mm CLR
23:19 13.3 °C 12.3 °C 1011.1 hPa SSW 5.8 km/h 7.4 km/h 94% 0.0 mm CLR
23:24 13.3 °C 12.3 °C 1011.1 hPa SSW 5.8 km/h 7.4 km/h 94% 0.0 mm CLR
23:29 13.4 °C 12.4 °C 1011.1 hPa SSE 4.7 km/h 7.4 km/h 94% 0.0 mm CLR
23:34 13.4 °C 12.4 °C 1011.1 hPa SSE 4.7 km/h 7.4 km/h 94% 0.0 mm CLR
23:39 13.4 °C 12.4 °C 1011.1 hPa SSE 4.7 km/h 7.4 km/h 94% 0.0 mm CLR
23:45 13.4 °C 12.3 °C 1011.1 hPa SSE 3.2 km/h 8.0 km/h 93% 0.0 mm CLR
23:49 13.4 °C 12.3 °C 1011.0 hPa SSE 4.7 km/h 5.6 km/h 93% 0.0 mm CLR
23:54 13.4 °C 12.3 °C 1011.0 hPa SSE 4.7 km/h 3.9 km/h 93% 0.0 mm CLR
Murcia-Puente Tocinos, España
Compliments of Weather Underground - 2.75 mb

La estación de MeteoMurcia.com, publica sus datos en los siguientes proyectos:

Weather Underground PWS IMURCIAP2 Meteoclimatic www.awekas.at

W3Counter
Web Analytics